Regional Weather Roundup
Issued by NWS

Home | Current Version | Previous Version | Graphics & Text | Print | Product List | Glossary On
Versions: 1 2 3 4 5 6 7 8 9 10 11 12 13 14 15 16 17 18 19 20 21 22 23 24 25 26 27 28 29 30 31 32 33 34 35 36 37 38 39 40 41 42 43 44 45 46 47 48 49 50
000
ASUS43 KIND 191309
RWRIN

WEATHER ROUNDUP FOR INDIANA
NATIONAL WEATHER SERVICE INDIANAPOLIS IN
900 AM EDT TUE SEP 19 2017

NOTE: "FAIR" INDICATES FEW OR NO CLOUDS BELOW 12,000 FEET WITH NO
SIGNIFICANT WEATHER AND/OR OBSTRUCTIONS TO VISIBILITY.

* - STATION DOES NOT REPORT WEATHER SUCH AS PRECIPITATION OR FOG.

+ - STATION NOT QUALITY CONTROLLED BY THE NATIONAL WEATHER SERVICE.
    USE DATA WITH CAUTION...ESPECIALLY DEWPOINT AND RELATIVE
    HUMIDITY OBSERVATIONS.

INZ001>003-010>013-019-020-191400-
NORTHWEST INDIANA

CITY           SKY/WX    TMP DP  RH WIND       PRES   REMARKS
GARY /AIRPORT/ CLOUDY    68  68 100 CALM      29.95R FOG
KNOX *+        CLOUDY    64  64 100 E5        29.94S
LA PORTE +     DRIZZLE   65  64  97 NE3       29.96R
MICHIGAN CITY+ CLOUDY    64  64 100 CALM      29.96R
MONTICELLO +   CLOUDY    66  64  94 W3        29.94S
RENSSELAER +   CLOUDY    64  61  88 W6        29.95R FOG
VALPARAISO     CLOUDY    68  66  93 NE5       29.95S

$$

LMZ046-743>745-191400-
SOUTHERN LAKE MICHIGAN

STATION/POSITION TIME  TEMP    WIND        PRES    WAVE
                       AIR SEA DIR/SP/G            HT
                 (UTC) (F)     (DEG/KT/KT) (MB)    (FT)
BURNS HARBOR     1240   67      20/  2/  3 1014.6R
MICHIGAN CITY    1240   67      CALM  /  1   N/A
5NW MICH CITY    1300   67 68   30/  2/  2   N/A     1

$$

INZ004-005-014>016-021>024-191400-
NORTH CENTRAL INDIANA

CITY           SKY/WX    TMP DP  RH WIND       PRES   REMARKS
ELKHART        CLOUDY    66  64  94 NE10      29.94F
GOSHEN         CLOUDY    67  64  90 SE5       29.94F
LOGANSPORT +   CLOUDY    66  64  94 CALM      29.95S
PERU/GRISSOM   CLOUDY    68  68 100 S3        29.94R FOG
ROCHESTER +    CLOUDY   N/A N/A N/A CALM      29.95S
SOUTH BEND     CLOUDY    66  66 100 N8        29.95R
WARSAW +       CLOUDY    64  64 100 CALM      29.95S

$$

INZ006>009-017-018-025>027-191400-
NORTHEAST INDIANA

CITY           SKY/WX    TMP DP  RH WIND       PRES   REMARKS
AUBURN +       DRIZZLE   64  63  94 NE6       29.97F
FORT WAYNE     CLOUDY    68  66  93 SE5       29.97S FOG
HUNTINGTON +   CLOUDY    67  65  96 CALM      29.95S FOG
KENDALLVILLE + CLOUDY    65  65 100 E3        29.96R

$$

INZ028-029-035-036-043>045-051>053-191400-
WEST CENTRAL INDIANA

CITY           SKY/WX    TMP DP  RH WIND       PRES   REMARKS
CRAWFORDSVL +  CLOUDY    66  66 100 S5        29.96R FOG
GREENCASTLE +  CLOUDY    66  64  94 S5        29.97S FOG
LAFAYETTE      PTSUNNY   67  67 100 CALM      29.94S
TERRE HAUTE    PTSUNNY   68  67  96 SE3       29.95F FOG

$$

INZ030>032-037>040-046>048-054>057-064-065-191400-
CENTRAL INDIANA

CITY           SKY/WX    TMP DP  RH WIND       PRES   REMARKS
ANDERSON       PTSUNNY   68  68 100 CALM      29.97
CP ATTERBURY + TSTM      66  64  94 S7        30.01R
COLUMBUS       CLOUDY    68  66  94 SW12      30.01R VSB 3/4
FISHERS *+     PTSUNNY  N/A N/A N/A S6        29.97R
FRANKFORT +    CLOUDY    71  70  97 SW3       29.97R FOG
GREENWOOD *+   CLOUDY    71  70  95 S3        29.98R
INDIANAPOLIS   LGT RAIN  68  67  96 S10       29.97R
-EAGLE CREEK   LGT RAIN  69  67  93 S5        29.96R FOG
KOKOMO +       CLOUDY    69  68  96 SW5       29.96R FOG
MT COMFORT *+    N/A    N/A N/A N/A MISG        N/A
SHELBYVILLE    RAIN      70  66  87 SW5       29.98R FOG
ZIONSVILLE +   CLOUDY    67  66  99 S6        29.97R FOG

$$

INZ033-034-041-042-049-050-058-059-191400-
EAST CENTRAL INDIANA

CITY           SKY/WX    TMP DP  RH WIND       PRES   REMARKS
MUNCIE         CLOUDY    71  67  87 SW5       29.96F
RICHMOND +     RAIN      64  64 100 CALM      30.00R

$$

INZ060-061-067>069-081>083-085>088-191400-
SOUTHWEST INDIANA

CITY           SKY/WX    TMP DP  RH WIND       PRES   REMARKS
EVANSVILLE     LGT RAIN  68  67  96 SE5       29.98R FOG
HUNTINGBURG +    N/A    N/A N/A N/A MISG        N/A
WASHINGTON +   CLOUDY    68  66  94 SE3       29.97R THUNDER FOG

$$

INZ062-063-066-070>080-084-089>092-191400-
SOUTH CENTRAL AND SOUTHEAST INDIANA

CITY           SKY/WX    TMP DP  RH WIND       PRES   REMARKS
BEDFORD +      RAIN      66  64  94 S6        29.96F
BLOOMINGTON    LGT RAIN  68  65  90 SE3       29.97F
MADISON *+     CLOUDY    68  66  94 CALM      30.02R
NORTH VERNON + LGT RAIN  66  66 100 SW9       30.02R
SEYMOUR +      TSTM      70  68  94 W5        30.01R

$$





USA.gov is the U.S. government's official web portal to all federal, state and local government web resources and services.